Location: Caltech
(34.1382°N, 118.1253°W)
Time: 04:07:01
(UTC-07:00)

Iridium 65 - Visible Passes

Search period start: 30 July 2014 00:00
Search period end: 09 August 2014 00:00
Orbit: 776 x 779 km, 86.4° (Epoch: 29 July)

Date Brightness Start Highest point End Pass type
(mag) Time Alt. Az. Time Alt. Az. Time Alt. Az.
30 Jul 7.7 00:04:41 19° NE 00:04:41 19° NE 00:06:20 10° NNE visible
30 Jul 7.8 01:45:09 16° NW 01:45:09 16° NW 01:46:39 10° NNW visible
30 Jul 8.1 23:31:16 11° NE 23:31:16 11° NE 23:31:38 10° NE visible
31 Jul 7.6 01:11:44 23° NNW 01:11:44 23° NNW 01:13:48 10° NNW visible
01 Aug 7.5 00:38:19 26° N 00:38:19 26° N 00:40:28 10° N visible
02 Aug 7.6 00:04:53 22° NNE 00:04:53 22° NNE 00:06:45 10° NNE visible
02 Aug 8.1 01:45:21 12° NW 01:45:21 12° NW 01:45:55 10° NW visible
02 Aug 7.9 23:31:27 15° NE 23:31:27 15° NE 23:32:33 10° NNE visible
03 Aug 7.8 01:11:55 18° NNW 01:11:55 18° NNW 01:13:34 10° NNW visible
04 Aug 7.6 00:38:29 23° NNW 00:38:29 23° NNW 00:40:29 10° N visible
05 Aug 7.5 00:05:02 23° N 00:05:02 23° N 00:07:00 10° N visible
05 Aug 7.7 23:31:35 18° NNE 23:31:35 18° NNE 23:33:07 10° NNE visible
06 Aug 8.1 01:12:03 14° NW 01:12:03 14° NW 01:13:04 10° NNW visible
06 Aug 8.0 22:58:08 12° NE 22:58:08 12° NE 22:58:38 10° NE visible
07 Aug 7.8 00:38:36 20° NNW 00:38:36 20° NNW 00:40:21 10° NNW visible
08 Aug 7.6 00:05:08 24° N 00:05:08 24° N 00:07:06 10° N visible
08 Aug 7.6 23:31:40 21° NNE 23:31:40 21° NNE 23:33:28 10° NNE visible
